Location: Carabito
(9.8355°N, 67.9249°W)
Time: 09:15:51
(UTC+00:00)

CZ-4B R/B - Pass Details

Date: 19 August 2024
Orbit: 807 x 881 km, 99.0° (Epoch: 10 September)

Event Time Altitude Azimuth Distance (km) Brightness Sun altitude
Exits shadow 01:02:17 57° 320° (NW) 1,032 3.7 -32.5°
Drops below altitude 10° 01:06:47 10° 342° (NNW) 2,528 6.1 -33.5°
Sets 01:09:11 0° 344° (NNW) 3,462 6.9 -34.1°
